Home   Weather   Belo Horizonte   Past weeks

Flag for Brazil Past Weather in Belo Horizonte, Minas Gerais, Brazil — Yesterday and Last 2 Weeks

Now
77 °F

Scattered clouds.


Feels Like: 79 °F
Forecast: 65 / 80 °F
Wind: 7 mph from Northeast

Location: Belo Horizonte Airport

Current Time: Sep 27, 2016 at 2:17:02 PM

Latest Report: Sep 27, 2016 at 1:00 PM


Visibility: N/A

Pressure: 30.09 "Hg (27.27 "Hg at 860m altitude)

Humidity: 54%

Dew Point: 59 °F

Location of Belo HorizonteLocation

Past Weather in Belo Horizonte — Graph

°F

Belo Horizonte Temperature Yesterday

Maximum temperature yesterday: 77 °F (at 1:00 PM)
Minimum temperature yesterday: 61 °F (at 2:00 AM)
Average temperature yesterday: 67 °F

High & Low Weather Summary for the Past Weeks

 TemperatureHumidityPressure
High93 °F (Sep 15, 4:00 PM)100% (Sep 26, 2:00 AM)30.24 "Hg (Sep 26, 2:00 AM)
Low54 °F (Sep 22, 5:00 AM)20% (Sep 15, 4:00 PM)29.77 "Hg (Sep 19, 6:00 PM)
Average73 °F57%30.08 "Hg
* Reported Sep 12 1:00 PM — Sep 27 1:00 PM, Belo Horizonte, Weather by CustomWeather, © 2016

Note: Actual official high and low records may vary slightly from our data, if they occured in-between our weather recording intervals... More about our weather records

Advertising

Belo Horizonte Weather History for the Previous 24 Hours

Scroll right to see more
 ConditionsComfort  
Time TempWeatherWind HumidityBarometerVisibility
1:00 PM
Tue, Sep 27
77 °FScattered clouds.7 mph54%30.09 "HgN/A
12:00 PM75 °FBroken clouds.6 mph57%30.12 "HgN/A
11:00 AM72 °FPartly sunny.9 mph69%30.15 "HgN/A
10:00 AM70 °FPartly sunny.9 mph69%30.15 "HgN/A
9:00 AM68 °FScattered clouds.9 mph73%30.15 "HgN/A
8:00 AM66 °FScattered clouds.10 mph78%30.15 "HgN/A
7:00 AM63 °FPassing clouds.12 mph88%30.12 "HgN/A
6:00 AM61 °FPassing clouds.9 mph94%30.09 "HgN/A
5:00 AM63 °FPartly cloudy.13 mph88%30.07 "HgN/A
4:00 AM63 °FPartly cloudy.10 mph88%30.04 "HgN/A
3:00 AM63 °FPartly cloudy.9 mph88%30.04 "HgN/A
2:00 AM63 °FPartly cloudy.9 mph88%30.04 "HgN/A
1:00 AM64 °FPartly cloudy.10 mph88%30.07 "HgN/A
12:00 AM64 °FPartly cloudy.8 mph88%30.09 "HgN/A
11:00 PM
Mon, Sep 26
64 °FPartly cloudy.9 mph88%30.09 "HgN/A
10:04 PM64 °FThunderstorms. Partly cloudy.10 mph88%N/A4 mi
10:00 PM64 °FPassing clouds.13 mph88%30.07 "HgN/A
9:00 PM66 °FClear.14 mph78%30.07 "Hg10 mi
8:00 PM66 °FClear.13 mph78%30.04 "Hg10 mi
7:00 PM68 °FPassing clouds.14 mph73%30.04 "HgN/A
6:00 PM70 °FPassing clouds.14 mph73%30.01 "Hg10 mi
5:00 PM73 °FPassing clouds.14 mph65%29.98 "HgN/A
4:00 PM77 °FScattered clouds.13 mph57%29.98 "HgN/A
3:00 PM75 °FBroken clouds.10 mph61%29.98 "HgN/A
2:00 PM77 °FBroken clouds.9 mph57%29.98 "HgN/A
Weather by CustomWeather, © 2016

See weather overviewHow to use our weather pages